fechar
X Fechar
X Fechar

X Fechar
foto
Salvar nos Favoritos

X Fechar
foto
Clique e saiba mais
Clique e saiba mais
Clique e saiba mais
Clique e saiba mais
Clique e saiba mais
Clique e saiba mais
Clique e saiba mais

América Sports

Capacete Companhia

RM - Motocross Racing

Edgers Racing

RX Graphics

JPS Racing

Ohlins

DLua Racing

Toro Sports

Clique e saiba mais

> Notícias > Últimas Notícias

Mundial MX: resultados e vídeos das classificatórias em Lommel
Publicado em: 01/08/2015

Shaun Simpson e Max Anstie dominam o sábado em Lommel
Redação MotoX.com.br: Lucídio Arruda - Fotos: Youthstream


Largada MXGP

O Mundial de Motocross voltou para a areia na 14ª etapa, disputada no circuito de Lommel, Bélgica. Ser o único a mandar um desafiador salto quádruplo fez a diferença hoje para o britânico Shaun Simpson, que superou os pilotos da Suzuki Glenn Coldenhoff e Kevin Strijbos.

Após a quinta volta, Simpson sofreu pressão de Romain Febvre, mas logo o francês ajustou o ritmo para garantir a segunda posição. Foi a primeira vitória em classificatórias de Simpson, que já participa do Mundial há 11 anos. Entretanto o piloto já venceu um GP na também arenosa Lierop, Holanda, em 2013.


Shaun Simpson

"Me senti confortável aqui. Tinha algumas linhas ruins e outras boas, mas essa é a beleza da areia, você pode ganhar muito tempo em alguns trechos", comentou Simpson. "Estou ansioso pelas corridas de amanhã."


Max Anstie

Na classe MX2 outro britânico que se sente em casa na areia foi o vencedor neste sábado. Max Anstie dominou a classe 250 e já se coloca como favorito, afinal venceu neste circuito ano passado e os candidatos ao título Tim Gajser e Valentin Guillod, além de não se sairem bem na bateria (11º e abandono, respectivamente), costumam andar melhor no terreno duro.


Petar Petrov ficou com a segunda posição na MX2

Amanhã as provas principais acontecem a partir da 8h, horário de Brasília, e você pode acompanhar a cronometragem e resultados ao vivo em: https://www.motox.com.br/liveresults/mundialmx/

Vídeos





Resultados

P. Nr MXGP Nat. Bike Time V Diff. Gap M.V. in lap Speed
1 24 Simpson, Shaun GBR KTM 25:04.611 13 0:00.000 0:00.000 1:50.171 1 54.7
2 461 Febvre, Romain FRA Yam 25:16.467 13 0:11.856 0:11.856 1:50.652 5 54.5
3 22 Strijbos, Kevin BEL Suz 25:24.608 13 0:19.997 0:08.141 1:50.790 1 54.4
4 259 Coldenhoff, Glenn NED Suz 25:26.443 13 0:21.832 0:01.835 1:52.090 3 53.8
5 89 Van Horebeek, Jeremy BEL Yam 25:29.708 13 0:25.097 0:03.265 1:52.379 1 53.7
6 777 Bobryshev, Evgeny RUS Hon 25:37.550 13 0:32.939 0:07.842 1:53.031 3 53.3
7 21 Paulin, Gautier FRA Hon 25:40.967 13 0:36.356 0:03.417 1:52.232 3 53.7
8 47 Waters, Todd AUS Hus 25:42.165 13 0:37.554 0:01.198 1:53.935 3 52.9
9 991 Watson, Nathan GBR Hus 25:43.340 13 0:38.729 0:01.175 1:52.428 3 53.6
10 28 Rattray, Tyla RSA Kaw 25:45.888 13 0:41.277 0:02.548 1:53.630 4 53.1
11 11 Bengtsson, Filip SWE Hon 25:50.208 13 0:45.597 0:04.320 1:52.679 3 53.5
12 40 Leok, Tanel EST Kaw 25:59.065 13 0:54.454 0:08.857 1:54.480 7 52.7
13 221 Ratsep, Priit EST Hon 26:02.283 13 0:57.672 0:03.218 1:53.178 3 53.3
14 337 Krestinov, Gert EST Hon 26:05.672 13 1:01.061 0:03.389 1:55.259 4 52.3
15 111 Ferris, Dean AUS Hus 26:29.832 13 1:25.221 0:24.160 1:55.792 4 52.1
16 23 Charlier, Christophe FRA Hon 26:46.939 13 1:42.328 0:17.107 1:56.649 8 51.7
17 8 Vanderstraeten, Mike BEL Yam 26:53.323 13 1:48.712 0:06.384 1:57.126 2 51.5
18 156 Heidecke, Angus GER KTM 25:14.074 12 1 lap 1 lap 1:59.005 3 50.7
19 39 Guarneri, Davide ITA TM 25:26.075 12 1 lap 0:12.001 1:57.170 5 51.5
20 62 Gercar, Klemen SLO Hus 25:30.371 12 1 lap 0:04.296 2:00.328 2 50.1
21 149 Ullrich, Dennis GER Suz 25:36.472 12 1 lap 0:06.101 2:00.362 3 50.1
22 38 Kouzis, Panagiotis GRE Hon 26:20.141 11 2 laps 1 lap 2:10.763 1 46.1
23 400 Yamamoto, Kei JPN Hon 26:02.402 10 3 laps 1 lap 2:06.217 1 47.8
24 45 Nicholls, Jake GBR KTM 17:00.362 8 5 laps 2 laps 1:59.218 3 50.6
25 212 Dewulf, Jeffrey BEL Yam 14:49.308 7 6 laps 1 lap 1:58.514 6 50.9
26 100 Searle, Tommy GBR KTM 10:58.548 5 8 laps 2 laps 1:58.323 1 51
27 17 Butron, Jose ESP KTM 0:00.000 0 13 laps 5 laps 0:00.000   0

P. Nr MX2 Nat. Bike Time V Diff. Gap M.V. in lap Speed
1 99 Anstie, Max GBR Kaw 25:32.320 13 0:00.000 0:00.000 1:53.465 2 53.1
2 152 Petrov, Petar BUL Kaw 25:37.186 13 0:04.866 0:04.866 1:53.061 3 53.3
3 41 Jonass, Pauls LAT KTM 25:40.036 13 0:07.716 0:02.850 1:53.573 1 53.1
4 172 Van doninck, Brent BEL Yam 25:47.906 13 0:15.586 0:07.870 1:52.099 2 53.8
5 91 Seewer, Jeremy SUI Suz 25:59.199 13 0:26.879 0:11.293 1:54.399 4 52.7
6 1 Tixier, Jordi FRA Kaw 26:08.422 13 0:36.102 0:09.223 1:53.609 2 53.1
7 189 Bogers, Brian NED KTM 26:09.299 13 0:36.979 0:00.877 1:54.692 4 52.6
8 919 Watson, Ben GBR KTM 26:17.678 13 0:45.358 0:08.379 1:56.179 2 51.9
9 33 Lieber, Julien BEL Yam 26:19.150 13 0:46.830 0:01.472 1:54.869 4 52.5
10 85 Pootjes, Davy NED KTM 26:20.780 13 0:48.460 0:01.630 1:55.498 4 52.2
11 243 Gajser, Tim SLO Hon 26:25.825 13 0:53.505 0:05.045 1:55.914 4 52
12 132 Kutsar, Karel EST KTM 26:33.288 13 1:00.968 0:07.463 1:56.956 3 51.6
13 64 Covington, Thomas USA Kaw 26:36.259 13 1:03.939 0:02.971 1:56.839 3 51.6
14 29 Jacobi, Henry GER KTM 26:36.418 13 1:04.098 0:00.159 1:56.847 4 51.6
15 51 Getteman, Jens BEL Hon 26:40.414 13 1:08.094 0:03.996 1:58.297 4 51
16 6 Paturel, Benoit FRA Yam 26:43.687 13 1:11.367 0:03.273 1:56.258 2 51.9
17 53 De Waal, Micha-Boy NED Kaw 26:54.920 13 1:22.600 0:11.233 1:58.097 4 51.1
18 18 Brylyakov, Vsevolod RUS Hon 27:01.302 13 1:28.982 0:06.382 1:59.087 4 50.6
19 128 Monticelli, Ivo ITA KTM 27:14.005 13 1:41.685 0:12.703 1:56.396 3 51.8
20 321 Bernardini, Samuele ITA TM 27:36.580 13 2:04.260 0:22.575 1:55.257 1 52.3
21 274 Lundgren, Anton SWE Hus 27:42.879 13 2:10.559 0:06.299 1:59.319 5 50.5
22 101 Zaragoza, Jorge ESP Hon 25:38.957 12 1 lap 1 lap 1:59.298 3 50.5
23 300 Golovkin, Viacheslav RUS KTM 27:06.062 12 1 lap 1:27.105 2:06.484 1 47.7
24 92 Guillod, Valentin SUI Yam 14:18.024 7 6 laps 5 laps 1:53.380 1 53.2
25 151 Kullas, Harri FIN Hus 8:25.870 4 9 laps 3 laps 1:55.882 4 52












Vídeos MotoX Connect



Acompanhe o MotoX no Facebook

Curso MotoX Ric Raspa
Brasil Racing
JPS Racing

© 2000 - 2017 MotoX MX1 Internet